Overview Statistics Trail Chart Weather Telemetry Raw packets
 

This is the latest recevied weather packets stored in our database for station/object NI4CE-10. If no packets are shown the sender has not sent any weather packets the latest 10 day(s).

<< 116 117 118 119 120 121 122 >>
Time Temp. Humidity Pressure Rain* Wind** Luminosity Snow
1788008712 33.89° C 100% 1019.4 hPa 0 mm - - -
1788008601 33.89° C 100% 1019.4 hPa 0 mm - - -
1788008301 32.78° C 100% 1019.4 hPa 0 mm - - -
1788008001 32.22° C 100% 1019.4 hPa 0 mm - - -
1788007701 31.11° C 100% 1019.5 hPa 0 mm - - -
1788007401 30° C 100% 1019.5 hPa 0 mm - - -
1788007101 26.67° C 100% 1019.6 hPa 0 mm - - -
1788006801 26.67° C 100% 1019.5 hPa 0 mm - - -
1788006501 26.11° C 100% 1019.5 hPa 0 mm - - -
1788006201 26.11° C 100% 1019.5 hPa 0 mm - - -
1788005901 25.56° C 100% 1019.3 hPa 0 mm - - -
1788005601 25.56° C 100% 1019.4 hPa 0 mm - - -
1788005301 25° C 100% 1019.3 hPa 0 mm - - -
1788005001 24.44° C 100% 1019.2 hPa 0 mm - - -
1788004701 24.44° C 100% 1019.3 hPa 0 mm - - -
1788004401 24.44° C 100% 1019.3 hPa 0 mm - - -
1788004101 24.44° C 100% 1019.1 hPa 0 mm - - -
1788003801 24.44° C 100% 1019.1 hPa 0 mm - - -
1788003501 24.44° C 100% 1019.1 hPa 0 mm - - -
1788003201 23.89° C 100% 1018.9 hPa 0 mm - - -
1788002901 23.89° C 100% 1018.9 hPa 0 mm - - -
1788002601 23.89° C 100% 1019 hPa 0 mm - - -
1788002301 23.89° C 100% 1018.9 hPa 0 mm - - -
1788002001 23.89° C 100% 1018.9 hPa 0 mm - - -
1788001701 23.89° C 100% 1018.8 hPa 0 mm - - -

* Rain latest hour (hover to see other rain measurements)
** Current wind speed in m/s (hover to see current wind gust speed)